Salida, CO

10:25 PM MST on January 21, 2018 (GMT -0700)
Salida

Weather History for KANK - November, 2012

Change the Weather History Date:

Friday, November 9, 2012

  Actual Average (KGUC) Record (KGUC)
Temperature  
Mean Temperature 50 °F -  
Max Temperature 60 °F 42 °F 60 °F (2016)
Min Temperature 41 °F 15 °F 8 °F (2011)
Degree Days  
Heating Degree Days 14    
Moisture  
Dew Point 26 °F    
Average Humidity 43    
Maximum Humidity 89    
Minimum Humidity 22    
Precipitation  
Precipitation 0.00 in - - ()
Sea Level Pressure  
Sea Level Pressure 29.92 in    
Wind  
Wind Speed 12 mph (SSW)    
Max Wind Speed 26 mph    
Max Gust Speed 38 mph    
Visibility 10 miles    
Events      
Averages and records for this station are not official NWS values.
T = Trace of Precipitation, MM = Missing Value Source: NWS Daily Summary

Daily Weather History Graph

Daily Weather History Graph

Search for Another Location

Airport or City:

Trip Planner

Search our weather history database for the weather conditions in past years. The results will help you decide how hot, cold, wet, or windy it might be!

Date:

Astronomy

Nov. 09, 2012 Rise Set
Actual Time 6:40 AM MST 4:55 PM MST
Civil Twilight 6:12 AM MST 5:23 PM MST
Nautical Twilight 5:40 AM MST 5:55 PM MST
Astronomical Twilight 5:09 AM MST 6:26 PM MST
Moon 1:45 AM MST (11/9) 2:07 PM MST (11/9)
Length of Visible Light 11h 11m
Length of Day
10h 15m
Waning Crescent, 22% of the Moon is Illuminated
Nov 9
Waning Crescent
Nov 13
New
Nov 20
First Quarter
Nov 28
Full
Dec 6
Last Quarter

Hourly Weather History & Observations

Time (MST) Temp. Windchill Dew Point Humidity Pressure Visibility Wind Dir Wind Speed Gust Speed Precip Events Conditions
12:15 AM 50.0 °F - 13.8 °F 24% 30.00 in 10.0 mi WSW 11.5 mph - N/A   Clear
12:35 AM 50.9 °F - 13.6 °F 23% 30.00 in 10.0 mi SW 8.1 mph 17.3 mph N/A   Clear
12:55 AM 51.1 °F - 14.0 °F 23% 29.99 in 10.0 mi SW 11.5 mph 26.5 mph N/A   Clear
1:15 AM 50.2 °F - 14.2 °F 24% 29.99 in 10.0 mi South 9.2 mph 17.3 mph N/A   Clear
1:35 AM 50.0 °F - 14.0 °F 24% 29.99 in 10.0 mi WSW 9.2 mph 19.6 mph N/A   Clear
1:55 AM 50.0 °F - 13.8 °F 24% 29.99 in 10.0 mi SW 12.7 mph 18.4 mph N/A   Clear
2:15 AM 50.0 °F - 13.5 °F 23% 29.98 in 10.0 mi SSW 12.7 mph 18.4 mph N/A   Clear
2:35 AM 50.0 °F - 14.0 °F 24% 29.97 in 10.0 mi SSW 10.4 mph 17.3 mph N/A   Clear
2:55 AM 48.7 °F - 14.9 °F 26% 29.98 in 10.0 mi SSW 8.1 mph - N/A   Scattered Clouds
3:15 AM 49.8 °F - 16.7 °F 27% 29.98 in 10.0 mi SW 13.8 mph 21.9 mph N/A   Mostly Cloudy
3:35 AM 49.8 °F - 18.7 °F 29% 29.97 in 10.0 mi SSW 12.7 mph 21.9 mph N/A   Mostly Cloudy
3:55 AM 50.2 °F - 20.3 °F 31% 29.96 in 10.0 mi SSW 9.2 mph 26.5 mph N/A   Mostly Cloudy
4:15 AM 48.6 °F - 18.7 °F 31% 29.97 in 10.0 mi SW 12.7 mph 16.1 mph N/A   Mostly Cloudy
4:35 AM 48.2 °F - 19.6 °F 32% 29.98 in 10.0 mi West 4.6 mph 9.2 mph N/A   Mostly Cloudy
4:55 AM 46.6 °F - 29.1 °F 51% 29.98 in 10.0 mi SW 8.1 mph 17.3 mph N/A   Scattered Clouds
5:15 AM 46.0 °F 40.6 °F 26.4 °F 46% 29.97 in 10.0 mi SSW 11.5 mph 20.7 mph N/A   Scattered Clouds
5:35 AM 46.4 °F 42.9 °F 25.0 °F 43% 29.98 in 10.0 mi SW 6.9 mph 17.3 mph N/A   Mostly Cloudy
5:55 AM 45.9 °F 42.3 °F 26.8 °F 47% 29.98 in 10.0 mi West 6.9 mph 16.1 mph N/A   Mostly Cloudy
6:15 AM 44.8 °F 41.0 °F 28.8 °F 53% 29.98 in 10.0 mi SW 6.9 mph - N/A   Clear
6:35 AM 45.9 °F 41.7 °F 27.5 °F 49% 29.98 in 10.0 mi SW 8.1 mph - N/A   Clear
6:55 AM 46.4 °F 41.5 °F 28.2 °F 49% 29.98 in 10.0 mi SW 10.4 mph 25.3 mph N/A   Clear
7:15 AM 45.9 °F 42.3 °F 27.7 °F 49% 29.98 in 10.0 mi SW 6.9 mph 17.3 mph N/A   Clear
7:35 AM 45.7 °F 41.5 °F 27.1 °F 48% 29.98 in 10.0 mi SW 8.1 mph 17.3 mph N/A   Clear
7:55 AM 46.0 °F 42.5 °F 26.4 °F 46% 29.98 in 10.0 mi SW 6.9 mph - N/A   Clear
8:15 AM 49.5 °F - 27.5 °F 43% 29.98 in 10.0 mi SSW 17.3 mph 25.3 mph N/A   Clear
8:35 AM 50.0 °F - 27.1 °F 41% 29.98 in 10.0 mi SSW 13.8 mph 26.5 mph N/A   Clear
8:55 AM 50.7 °F - 27.3 °F 40% 29.97 in 10.0 mi SSW 17.3 mph 27.6 mph N/A   Clear
9:15 AM 50.9 °F - 27.5 °F 40% 29.96 in 10.0 mi SSW 20.7 mph 28.8 mph N/A   Clear
9:55 AM 54.5 °F - 26.8 °F 34% 29.95 in 10.0 mi SW 15.0 mph 27.6 mph N/A   Clear
10:15 AM 55.9 °F - 25.3 °F 31% 29.94 in 10.0 mi SSW 15.0 mph 32.2 mph N/A   Clear
10:35 AM 56.3 °F - 25.5 °F 31% 29.94 in 10.0 mi SSW 19.6 mph 27.6 mph N/A   Clear
10:55 AM 57.2 °F - 25.2 °F 29% 29.93 in 10.0 mi SSW 19.6 mph 27.6 mph N/A   Clear
11:15 AM 56.5 °F - 25.3 °F 30% 29.91 in 10.0 mi SSW 19.6 mph 33.4 mph N/A   Clear
11:35 AM 57.2 °F - 24.6 °F 29% 29.90 in 10.0 mi South 26.5 mph 35.7 mph N/A   Clear
11:55 AM 57.6 °F - 25.0 °F 29% 29.90 in 10.0 mi South 23.0 mph 31.1 mph N/A   Clear
12:15 PM 57.9 °F - 25.3 °F 29% 29.88 in 10.0 mi South 13.8 mph 25.3 mph N/A   Scattered Clouds
12:35 PM 58.3 °F - 25.7 °F 29% 29.86 in 10.0 mi South 13.8 mph 23.0 mph N/A   Scattered Clouds
12:55 PM 56.5 °F - 26.2 °F 31% 29.85 in 10.0 mi South 10.4 mph 24.2 mph N/A   Mostly Cloudy
1:15 PM 59.0 °F - 24.4 °F 27% 29.84 in 10.0 mi South 18.4 mph 26.5 mph N/A   Overcast
1:35 PM 59.7 °F - 23.9 °F 25% 29.83 in 10.0 mi South 17.3 mph 28.8 mph N/A   Scattered Clouds
1:55 PM 60.8 °F - 21.7 °F 22% 29.83 in 10.0 mi South 13.8 mph 19.6 mph N/A   Scattered Clouds
2:15 PM 59.5 °F - 20.8 °F 22% 29.83 in 10.0 mi South 13.8 mph 19.6 mph N/A   Mostly Cloudy
2:35 PM 58.6 °F - 21.2 °F 24% 29.83 in 10.0 mi SSW 16.1 mph 23.0 mph N/A   Mostly Cloudy
2:55 PM 59.7 °F - 20.1 °F 22% 29.82 in 10.0 mi SSW 20.7 mph 28.8 mph N/A   Mostly Cloudy
3:15 PM 57.7 °F - 26.1 °F 30% 29.83 in 10.0 mi South 15.0 mph 23.0 mph N/A   Mostly Cloudy
3:35 PM 56.3 °F - 27.7 °F 33% 29.83 in 10.0 mi SSE 13.8 mph 21.9 mph N/A   Overcast
3:55 PM 55.4 °F - 27.5 °F 34% 29.83 in 10.0 mi South 10.4 mph 19.6 mph N/A   Overcast
4:15 PM 54.0 °F - 25.2 °F 33% 29.83 in 10.0 mi South 19.6 mph 26.5 mph N/A   Overcast
4:35 PM 52.9 °F - 26.6 °F 36% 29.83 in 10.0 mi South 11.5 mph 27.6 mph N/A   Overcast
4:55 PM 48.9 °F - 33.4 °F 55% 29.88 in 10.0 mi South 23.0 mph 38.0 mph N/A   Overcast
5:15 PM 44.6 °F 40.2 °F 37.0 °F 75% 29.88 in 10.0 mi SE 8.1 mph - N/A   Overcast
5:35 PM 44.2 °F 40.3 °F 37.2 °F 76% 29.88 in 10.0 mi East 6.9 mph - N/A   Overcast
5:55 PM 45.1 °F 40.8 °F 36.5 °F 72% 29.88 in 10.0 mi SE 8.1 mph - N/A   Overcast
6:15 PM 44.1 °F 38.6 °F 37.0 °F 76% 29.88 in 10.0 mi ESE 10.4 mph - N/A   Overcast
6:35 PM 44.2 °F 39.7 °F 36.9 °F 75% 29.87 in 10.0 mi East 8.1 mph 16.1 mph N/A   Overcast
6:55 PM 44.6 °F 38.8 °F 36.9 °F 74% 29.88 in 10.0 mi South 11.5 mph 20.7 mph N/A   Overcast
7:15 PM 42.8 °F 39.3 °F 38.1 °F 84% 29.88 in 10.0 mi South 5.8 mph - N/A   Overcast
7:35 PM 42.3 °F 38.6 °F 37.8 °F 84% 29.87 in 10.0 mi South 5.8 mph - N/A   Overcast
7:55 PM 41.4 °F 35.7 °F 38.5 °F 89% 29.88 in 10.0 mi SE 9.2 mph 16.1 mph N/A   Overcast
8:15 PM 41.2 °F 38.2 °F 37.9 °F 88% 29.87 in 10.0 mi SE 4.6 mph 17.3 mph N/A   Overcast
8:35 PM 41.9 °F 40.0 °F 37.2 °F 83% 29.86 in 10.0 mi ESE 3.5 mph - N/A   Overcast
8:55 PM 43.5 °F 38.3 °F 36.0 °F 75% 29.87 in 10.0 mi South 9.2 mph - N/A   Overcast
9:15 PM 45.1 °F 38.8 °F 34.7 °F 67% 29.85 in 10.0 mi South 13.8 mph 24.2 mph N/A   Overcast
9:55 PM 43.9 °F 35.9 °F 34.2 °F 69% 29.85 in 10.0 mi South 18.4 mph 25.3 mph N/A   Scattered Clouds